Location: Antioch Church
(34.9543°N, 88.5145°W)
Time: 13:29:05
(UTC+00:00)

ADEOS Rocket - Pass Details

Date: 11 December 2019
Orbit: 858 x 1307 km, 98.7° (Epoch: 22 January)

Event Time Altitude Azimuth Distance (km) Brightness Sun altitude
Exits shadow 00:55:29 24° 157° (SSE) 1,702 4.1 -26.5°
Drops below altitude 10° 00:57:53 10° 171° (S) 2,532 5.2 -27.0°
Sets 01:00:25 0° 178° (S) 3,504 6.0 -27.5°
